Regional Weather Roundup
Issued by NWS Grand Forks, ND

Home | Current Version | Previous Version | Graphics & Text | Print | Product List | Glossary On
Versions: 1 2 3 4 5 6 7 8 9 10 11 12 13 14 15 16 17 18 19 20 21 22 23 24 25 26 27 28 29 30 31 32 33 34 35 36 37 38 39 40 41 42 43 44 45 46 47 48 49 50
000
ASUS43 KFGF 170731
RWRFGF
PRAIRIE TO PINES  WEATHER ROUNDUP
NATIONAL WEATHER SERVICE EASTERN NORTH DAKOTA/GRAND FORKS ND
100 AM CST FRI NOV 17 2017

 **SATELLITE DATA USED TO AUGMENT SKY COVER AT AUTOMATED STATIONS**
 *****  WEATHER ACROSS EASTERN NORTH DAKOTA  *****

CITY           SKY/WX    TMP DP  RH WIND       PRES   REMARKS
GRAND FORKS    CLOUDY    33  29  85 S17       29.64R WCI  22
GRAND FRKS AFB MOCLDY    31  28  86 S13       29.62S WCI  22
GRAND FRKS NWS   N/A     32 N/A N/A S18         N/A  WCI  20
DEVILS LAKE    LGT RAIN  33  29  85 S13       29.55F WCI  24
FARGO          CLOUDY    35  27  72 S18G35    29.63R WCI  24
WAHPETON ARPT  NOT AVBL
$$

 ***** WEATHER ACROSS CENTRAL AND WESTERN NORTH DAKOTA  *****

CITY           SKY/WX    TMP DP  RH WIND       PRES   REMARKS
BISMARCK       FAIR      29  27  92 CALM      29.58F
MINOT          FAIR      40  28  62 W16       29.52S
JAMESTOWN      FAIR      25  23  92 E3        29.58F
MINOT AFB      CLOUDY    35  28  74 NW20      29.51S WCI  24
GARRISON         N/A     39  31  72 W10       29.54F
WILLISTON      FAIR      28  24  85 NW8       29.62R WCI  20
DICKINSON      CLOUDY    37  30  75 W8        29.58S
HETTINGER      FAIR      31  24  75 NW6       29.62R
$$

 *****  OTHER AIRPORT OBSERVATIONS IN OUR AREA  *****

CITY           SKY/WX    TMP DP  RH WIND       PRES   REMARKS
WALHALLA       FAIR      32  32 100 S15G22    29.52F WCI  22
GRAFTON AIRPOR PTSUNNY   32  30  93 S17       29.63S WCI  21
VALLEY CITY AR FAIR      25  25 100 CALM      29.61F
CANDO          CLOUDY    32  34 100 S5        29.51F
CAVALIER APRT  LGT RAIN  30  28  93 S23G30    29.55F WCI  17
GWINNER          N/A     28  25  86 E6        29.58S WCI  22
ROLLA          FAIR      30  28  93 SW15      29.47F WCI  19
 ***** THE ABOVE OBSERVATIONS ARE NON NWS ARE NOT QUALITY
       CONTROLLED AND MAY MIS-REPORT RAIN FOR SNOW...
$$

  *****  WEATHER ACROSS NORTHERN MINNESOTA  *****

CITY           SKY/WX    TMP DP  RH WIND       PRES   REMARKS
FLAG ISLAND    CLOUDY    28  25  86 S24       29.65S WCI  14
WARROAD        FAIR      30  25  80 S10       29.66R WCI  21
ROSEAU         MOCLDY    32  27  80 S15       29.65R WCI  22
HALLOCK        FLURRIES  32  28  86 S18       29.61S WCI  20
THF RVR FALLS  MOCLDY    32  26  78 S14G22    29.66R WCI  22
BAUDETTE       FAIR      29  23  78 SE16G25   29.67F WCI  17
WASKISH        FAIR      30  25  80 SE9G21    29.68S WCI  22
CROOKSTON      FAIR      34  28  80 S13       29.65F WCI  25
STEPHEN NDAWN    N/A     32  27  80 S14         N/A  WCI  22
GREENBUSH NDAW   N/A     30  25  80 S12         N/A  WCI  21
$$
  *****  WEATHER ACROSS CENTRAL AND WEST MINNESOTA  *****

CITY           SKY/WX    TMP DP  RH WIND       PRES   REMARKS
FOSSTON        FAIR      30  25  80 S17       29.65R WCI  18
BEMIDJI        MOCLDY    30  25  80 SE18G24   29.67F WCI  18
PARK RAPIDS    MOCLDY    32  26  78 SE16      29.70F WCI  21
ELBOW LAKE     FAIR      33  28  80 SE23G33   29.65S HAZE    WCI  21
WADENA         FAIR      30  27  86 SE14G20   29.69F WCI  20
DETROIT LAKES  FAIR      32  28  86 SE14      29.68R WCI  22
MOORHEAD       FAIR      34  27  75 S18G29    29.66R WCI  23
FERGUS FALLS   FAIR      34  27  75 S23G35    29.65F WCI  22
MORRIS MN      FAIR      34  28  80 SE26G36   29.62F WCI  21
STAPLES        FAIR      30  25  80 SE14G20   29.71F WCI  20
$$
  *****  WEATHER ELSEWHERE ACROSS MINNESOTA  *****

CITY           SKY/WX    TMP DP  RH WIND       PRES   REMARKS
DULUTH         CLOUDY    29  26  89 SE17      29.89F WCI  17
INTRNTL FALLS  CLOUDY    30  22  72 S17G30    29.74F WCI  18
ELY            CLOUDY    28  27  93 SE15G23   29.86F WCI  17
CLOQUET        CLOUDY    28  25  86 SE7       29.87F WCI  21
WHEATON        FAIR      34  27  75 SE18G26   29.63F WCI  23
BRAINERD       FAIR      34  26  72 S15G25    29.77F WCI  24
HIBBING        CLOUDY    28  23  81 SE14G24   29.84F WCI  17
ALEXANDRIA     CLOUDY    33  27  78 SE23G29   29.71F WCI  21
SAINT CLOUD    MOCLDY    33  28  81 SE22G30   29.82F WCI  21
MINNEAPOLIS    CLOUDY    35  29  78 S16       29.93F
$$

  *****  WEATHER ACROSS SOUTH DAKOTA  *****

CITY           SKY/WX    TMP DP  RH WIND       PRES   REMARKS
SIOUX FALLS    FAIR      41  29  62 S15G23    29.68F
BROOKINGS      FAIR      37  27  67 S24G32    29.61F
WATERTOWN      FAIR      37  29  72 S20G28    29.55F
HURON          FAIR      43  31  62 S20G29    29.53F
SISSETON         N/A     34  28  79 S17       29.57R WCI  23
ABERDEEN       FAIR      41  31  67 S13       29.53R
MITCHELL       FAIR      43  31  62 S18       29.57F
PIERRE         FAIR      47  34  60 NW17      29.49R
MOBRIDGE       FAIR      38  28  67 N12       29.54R
RAPID CITY     FAIR      45  28  51 N17       29.64R
$$

  *****  SOME WEATHER IN NEARBY STATES *****

CITY           SKY/WX    TMP DP  RH WIND       PRES   REMARKS
GLASGOW MT     FAIR      21  18  88 W3        29.61S
GREAT FALLS MT FAIR      33  19  56 SW12      29.57F WCI  24
CHEYENNE WY    FAIR      49  27  42 SW14      29.70F
SCOTTSBLUFF NE FAIR      41  28  60 NE7       29.63F
OMAHA NE       FAIR      43  29  57 S14       29.82F
DES MOINES IA  CLOUDY    37  29  72 SE14      29.95F
DAVENPORT IA   CLOUDY    32  29  88 SE10G21   30.14F WCI  24
CHICAGO IL     CLOUDY    37  30  75 S8        30.18F
EAU CLAIRE WI  CLOUDY    33  26  75 SE13      30.03F WCI  24
LA CROSSE WI   MOCLDY    36  28  73 S13       30.05F
$$

  *****  SOME NATIONAL WEATHER *****

CITY           SKY/WX    TMP DP  RH WIND       PRES   REMARKS
LA GUARDIA NY  FAIR      44  31  60 NW16      29.93R
RALEIGH NC     FAIR      38  32  79 NE3       30.15R
ATLANTA GA     FAIR      43  38  82 NW7       30.12S
NEW ORLEANS LA FAIR      60  59  96 CALM      30.11F
OKLAHOMA CITY  CLOUDY    57  55  93 S15       29.91F FOG
ALBUQUERQUE NM MOCLDY    56  25  30 SE8       30.10S
SALT LAKE CITY MOCLDY    53  45  74 N8        29.74F
LOS ANGELES CA MOCLDY    66  57  72 VRB3      29.98F
BOISE ID       CLOUDY    43  33  68 SW6       29.76R
SEATTLE WA     CLOUDY    42  38  85 S14G24    29.72R
$$

*** WEATHER ACROSS MANITOBA...SASKATCHEWAN AND ONTARIO ***
                ***ONTARIO***

CITY           SKY/WX    TMP DP  RH WIND       PRES   REMARKS
GERALDTON      FLURRIES  12   9  85 SE14      30.14F WCI  -3
THUNDER BAY    CLOUDY    28  23  80 SE12      30.08F WCI  18
SIOUX LOOKOUT  FLURRIES  21  19  93 SE16G30   29.75F WCI   7
TORONTO        CLOUDY    30  21  69 N17G26    30.19R WCI  18
BIG TROUT LK   MOCLDY    10   7  85 SE23G33   29.89F WCI -10
PICKLE LAKE    NOT AVBL
DRYDEN         CLOUDY    27  23  86 S20G33    29.71F WCI  13
KENORA         CLOUDY    28  23  80 S22G30    29.64F WCI  15
$$
                *** MANITOBA***

CITY           SKY/WX    TMP DP  RH WIND       PRES   REMARKS
BRANDON        CLOUDY    32  25  74 W26G35    29.45R WCI  18
DAUPHIN        FLURRIES  25  18  74 W31G43    29.35R WCI   8
ISLAND LAKE    SNOWSHWR  16  12  86 SE23G33   29.51F DRFTSNOWWCI  -2
PILOT MOUND      N/A     30  27  86 SW16        N/A  WCI  19
THE PAS        LGT SNOW  18  16  93 W6        29.26S VSB 3/4 WCI   9
THOMPSON       LGT SNOW  12   9  85 E6        29.37F WCI   3
WINNIPEG       CLOUDY    30  27  86 S26G35    29.51F WCI  16
LYNN LAKE      LGT SNOW   5   3  92 NE3       29.37F
CHURCHILL      CRYSTALS  10   5  79 SE25G31   29.73F WCI -10
GILLAM         LGT SNOW  10   5  79 SE12G22   29.57  WCI  -4
$$
                ***SASKATCHEWAN***

CITY           SKY/WX    TMP DP  RH WIND       PRES   REMARKS
ESTEVAN        PTCLDY    16   9  73 W15G22    29.58R WCI   1
KINDERSLEY     CLEAR      0  -4  85 VRB8      29.56R WCI -15
LLOYDMINSTER   MOCLDY     7   3  85 W6        29.54R WCI  -3
PRINCE ALBERT  FLURRIES  10   5  79 NW14G22   29.50R WCI  -5
REGINA         MOCLDY    10   5  79 W17G24    29.55R WCI  -7
YORKTON        MOCLDY    18  12  79 W20G29    29.43R WCI   1
N. BATTLEFORD  PTCLDY     3  -2  78 W10       29.59R WCI -12
LA RONGE       FLURRIES  10   5  79 W13       29.46R WCI  -5
SASKATOON      MOCLDY    10   5  79 W10       29.57R WCI  -3
SWIFT CURRENT  CLEAR      7   1  78 W20G26    29.52F WCI -13
$$
NOTE: THESE ARE AUTOMATED STATIONS WITH LIMITED QUALITY CONTROL
      "FAIR" INDICATES FEW OR NO CLOUDS BELOW 12,000 FEET WITH NO
      SIGNIFICANT WEATHER AND/OR OBSTRUCTIONS TO VISIBILITY.
      SKY/WX - SKY CONDITION AND SIGNIFICANT WEATHER.
      TMP - AIR TEMPERATURE.    DP   - DEWPOINT TEMPERATURE.
      RH  - RELATIVE HUMIDITY.  PRES - PRESSURE.
      HX  - HEAT INDEX.         WCI  - WIND CHILL INDEX.
$



USA.gov is the U.S. government's official web portal to all federal, state and local government web resources and services.